Dayton, OR

5:37 AM PDT on October 01, 2016 (GMT -0700)
McMinnville Municipal

Weather History for KMMV - February, 2014

Change the Weather History Date:

Sunday, February 2, 2014

  Actual Average Record
Temperature  
Mean Temperature 40 °F 42 °F  
Max Temperature 47 °F 49 °F 61 °F (1954)
Min Temperature 32 °F 35 °F 2 °F (1950)
Degree Days  
Heating Degree Days 25 23  
Month to date heating degree days 48 46  
Since 1 July heating degree days 2819 2801  
Cooling Degree Days 0 0  
Month to date cooling degree days 0 0  
Year to date cooling degree days 0 0  
Moisture  
Dew Point 34 °F    
Average Humidity 80    
Maximum Humidity 100    
Minimum Humidity 60    
Precipitation  
Precipitation 0.00 in 0.20 in 1.89 in (1968)
Month to date precipitation T 0.40  
Year to date precipitation 2.69 6.50  
Sea Level Pressure  
Sea Level Pressure 29.99 in    
Wind  
Wind Speed 3 mph (North)    
Max Wind Speed 8 mph    
Max Gust Speed 11 mph    
Visibility 10 miles    
Events      
T = Trace of Precipitation, MM = Missing Value Source: NWS Daily Summary

Daily Weather History Graph

Daily Weather History Graph

Search for Another Location

Airport or City:

Trip Planner

Search our weather history database for the weather conditions in past years. The results will help you decide how hot, cold, wet, or windy it might be!

Date:

Astronomy

Feb. 02, 2014 Rise Set
Actual Time 7:31 AM PST 5:21 PM PST
Civil Twilight 7:00 AM PST 5:52 PM PST
Nautical Twilight 6:24 AM PST 6:28 PM PST
Astronomical Twilight 5:50 AM PST 7:02 PM PST
Moon 8:50 AM PST (2/2) 9:25 PM PST (2/2)
Length of Visible Light 10h 52m
Length of Day
9h 50m
Waxing Crescent, 12% of the Moon is Illuminated
Feb 2
Waxing Crescent
Feb 6
First Quarter
Feb 14
Full
Feb 22
Last Quarter
Mar 1
New

Hourly Weather History & Observations

Time (PST) Temp. Windchill Dew Point Humidity Pressure Visibility Wind Dir Wind Speed Gust Speed Precip Events Conditions
12:53 AM 35.1 °F 30.1 °F 34.0 °F 96% 30.03 in 10.0 mi NNW 5.8 mph - N/A   Overcast
1:53 AM 36.0 °F 32.1 °F 34.0 °F 93% 30.01 in 10.0 mi NNW 4.6 mph - N/A   Overcast
2:53 AM 36.0 °F 30.3 °F 34.0 °F 93% 30.01 in 10.0 mi North 6.9 mph - N/A   Overcast
3:53 AM 36.0 °F 32.1 °F 34.0 °F 93% 30.01 in 10.0 mi NNW 4.6 mph - N/A   Overcast
4:53 AM 37.0 °F 32.4 °F 34.0 °F 89% 30.00 in 10.0 mi North 5.8 mph - N/A   Overcast
5:53 AM 37.0 °F - 34.0 °F 89% 30.00 in 10.0 mi Calm Calm - N/A   Overcast
6:53 AM 37.0 °F 34.5 °F 34.0 °F 89% 30.00 in 10.0 mi North 3.5 mph - N/A   Overcast
7:53 AM 36.0 °F - 35.1 °F 97% 30.01 in 10.0 mi Calm Calm - N/A   Overcast
8:53 AM 37.9 °F - 35.1 °F 89% 30.02 in 10.0 mi Calm Calm - N/A   Overcast
9:53 AM 39.9 °F 37.8 °F 35.1 °F 83% 30.02 in 10.0 mi North 3.5 mph - N/A   Overcast
10:53 AM 42.1 °F - 35.1 °F 76% 30.01 in 10.0 mi Calm Calm - N/A   Overcast
11:53 AM 42.1 °F - 35.1 °F 76% 29.99 in 10.0 mi Calm Calm - N/A   Overcast
12:53 PM 44.1 °F - 33.1 °F 65% 29.97 in 10.0 mi Calm Calm - N/A   Overcast
1:53 PM 45.0 °F 43.5 °F 35.1 °F 68% 29.96 in 10.0 mi SE 3.5 mph - N/A   Overcast
2:53 PM 46.9 °F - 34.0 °F 61% 29.95 in 10.0 mi Calm Calm - N/A   Clear
3:53 PM 46.0 °F 43.9 °F 35.1 °F 66% 29.96 in 10.0 mi East 4.6 mph - N/A   Overcast
4:53 PM 44.1 °F 42.5 °F 36.0 °F 73% 29.96 in 10.0 mi ESE 3.5 mph - N/A   Clear
5:53 PM 42.1 °F 40.2 °F 35.1 °F 76% 29.96 in 10.0 mi ESE 3.5 mph - N/A   Scattered Clouds
6:53 PM 37.9 °F - 35.1 °F 89% 29.95 in 10.0 mi Calm Calm - N/A   Partly Cloudy
7:53 PM 37.0 °F 33.3 °F 34.0 °F 89% 29.96 in 10.0 mi NNW 4.6 mph - N/A   Overcast
8:53 PM 37.0 °F 34.5 °F 34.0 °F 89% 29.96 in 10.0 mi WSW 3.5 mph - N/A   Overcast
9:53 PM 35.1 °F 31.0 °F 33.1 °F 92% 29.98 in 10.0 mi West 4.6 mph - N/A   Overcast
10:53 PM 36.0 °F - 33.1 °F 89% 29.99 in 10.0 mi Calm Calm - N/A   Mostly Cloudy
11:53 PM 37.0 °F - 34.0 °F 89% 30.01 in 10.0 mi North - - N/A   Overcast